Total_Precipitation_Accumulation
1.73 1.90 1.93 2.03 1.96 2.08 1.99 1.80 1.57 1.47 1.38 1.18 1.14 1.17 1.11 1.07 1.12 1.21 1.40 1.47 1.43 1.60 1.90 2.07 1.94 1.79 1.75 1.70 1.65 1.57 1.49 1.40 1.29 1.12 0.98 0.89 0.83 0.81 0.81 0.82 0.79 0.74 0.71
2.07 2.16 2.22 2.29 2.16 2.16 2.18 2.07 1.82 1.68 1.59 1.44 1.29 1.20 1.16 1.27 1.30 1.26 1.44 1.55 1.49 1.47 1.72 2.08 2.22 2.28 2.32 2.31 2.12 1.86 1.73 1.63 1.58 1.46 1.28 1.10 1.00 0.94 0.89 0.91 0.93 0.86 0.81
2.42 2.41 2.58 2.61 2.47 2.42 2.39 2.32 2.19 1.94 1.85 1.80 1.71 1.55 1.42 1.42 1.56 1.62 1.63 1.74 1.79 1.69 1.76 1.98 2.20 2.35 2.48 2.59 2.44 2.23 2.05 1.93 1.90 1.84 1.68 1.47 1.27 1.14 1.08 1.02 1.00 0.98 0.91
2.77 2.90 2.85 2.70 2.58 2.53 2.54 2.65 2.51 2.25 2.17 2.21 2.11 1.84 1.58 1.58 1.68 1.76 1.75 1.83 1.97 1.90 1.89 1.85 1.93 2.10 2.30 2.49 2.53 2.55 2.45 2.35 2.23 2.14 2.03 1.89 1.71 1.51 1.37 1.29 1.18 1.09 1.01
3.08 3.22 3.19 2.98 2.77 2.69 2.71 2.58 2.59 2.50 2.53 2.49 2.14 1.90 1.65 1.60 1.67 1.70 1.75 1.83 2.00 2.08 2.09 1.92 1.97 2.17 2.32 2.49 2.63 2.75 2.80 2.78 2.64 2.54 2.41 2.31 2.18 1.92 1.69 1.53 1.40 1.30 1.22
3.50 3.52 3.43 3.26 3.10 2.97 2.91 2.81 2.76 2.73 2.60 2.47 2.08 1.87 1.68 1.55 1.56 1.63 1.68 1.74 1.79 1.84 1.92 1.95 1.99 1.95 2.08 2.29 2.51 2.73 2.90 3.04 2.92 2.71 2.55 2.51 2.44 2.27 2.08 1.89 1.73 1.62 1.53
3.92 3.88 3.79 3.64 3.46 3.24 3.08 2.92 2.79 2.66 2.48 2.32 2.17 1.98 1.70 1.49 1.50 1.53 1.49 1.55 1.63 1.63 1.67 1.73 1.88 1.85 1.78 1.98 2.09 2.39 2.69 2.98 3.06 2.96 2.83 2.79 2.74 2.57 2.38 2.19 2.03 1.90 1.79
4.42 4.29 4.20 3.98 3.72 3.48 3.24 3.02 2.78 2.57 2.38 2.23 2.19 2.26 2.02 1.75 1.42 1.23 1.24 1.27 1.31 1.32 1.38 1.47 1.51 1.55 1.54 1.61 1.70 1.89 2.15 2.37 2.60 2.71 2.78 2.76 2.73 2.68 2.56 2.39 2.26 2.17 2.15
4.50 4.17 3.95 3.87 3.65 3.31 3.08 2.91 2.70 2.52 2.30 2.15 2.06 2.21 2.17 1.96 1.62 1.42 1.22 1.12 1.13 1.21 1.25 1.34 1.38 1.32 1.26 1.27 1.36 1.54 1.67 1.73 1.99 2.24 2.39 2.41 2.39 2.38 2.39 2.42 2.41 2.33 2.26
4.15 3.87 3.61 3.33 3.10 2.83 2.59 2.44 2.34 2.28 2.20 2.08 2.02 1.86 1.68 1.56 1.60 1.50 1.34 1.23 1.18 1.19 1.16 1.12 1.14 1.16 1.14 1.13 1.22 1.33 1.42 1.52 1.72 1.84 1.96 2.02 2.03 2.06 2.06 2.05 2.08 2.10 2.16
3.42 3.12 2.87 2.59 2.34 2.15 1.98 1.80 1.75 1.87 1.98 1.98 1.97 1.93 1.77 1.60 1.52 1.48 1.43 1.38 1.34 1.29 1.18 1.11 1.06 1.04 1.00 0.99 1.02 1.19 1.31 1.32 1.39 1.46 1.57 1.63 1.65 1.74 1.82 1.82 1.82 1.90 2.05
2.65 2.38 2.13 1.93 1.74 1.56 1.46 1.39 1.38 1.44 1.57 1.67 1.71 1.74 1.75 1.80 1.77 1.69 1.60 1.56 1.53 1.43 1.28 1.19 1.14 1.11 1.07 1.04 1.12 1.32 1.22 1.23 1.27 1.24 1.23 1.29 1.32 1.38 1.50 1.61 1.70 1.81 1.99
1.87 1.66 1.47 1.35 1.22 1.13 1.09 1.06 1.09 1.17 1.22 1.28 1.38 1.48 1.54 1.60 1.62 1.71 1.80 1.73 1.61 1.42 1.25 1.18 1.13 1.09 1.07 1.06 1.07 1.16 1.04 1.04 1.06 1.06 1.07 1.12 1.15 1.19 1.22 1.29 1.38 1.48 1.61
1.12 0.99 0.92 0.85 0.81 0.81 0.78 0.78 0.82 0.90 0.96 0.99 1.03 1.16 1.31 1.32 1.27 1.36 1.53 1.55 1.53 1.44 1.22 1.12 1.06 1.01 0.97 0.91 0.96 0.97 0.89 0.97 0.93 0.90 0.86 0.85 0.87 0.90 0.94 0.97 1.05 1.12 1.17
0.77 0.69 0.65 0.63 0.61 0.61 0.61 0.60 0.60 0.61 0.69 0.78 0.82 0.90 1.01 1.05 1.00 1.01 1.10 1.21 1.29 1.34 1.20 0.98 0.92 0.91 0.86 0.82 0.88 0.72 0.75 0.86 0.82 0.79 0.76 0.71 0.70 0.71 0.73 0.74 0.75 0.79 0.85
0.57 0.52 0.46 0.43 0.39 0.39 0.42 0.48 0.49 0.46 0.50 0.55 0.58 0.63 0.69 0.74 0.77 0.79 0.86 0.96 1.07 1.17 1.17 0.90 0.77 0.75 0.72 0.64 0.71 0.62 0.65 0.67 0.61 0.59 0.57 0.55 0.52 0.52 0.53 0.55 0.57 0.59 0.63
0.38 0.36 0.33 0.30 0.28 0.28 0.32 0.39 0.42 0.42 0.44 0.45 0.45 0.46 0.50 0.54 0.62 0.62 0.64 0.71 0.81 0.92 1.02 0.88 0.70 0.64 0.64 0.63 0.62 0.59 0.54 0.48 0.45 0.45 0.44 0.44 0.42 0.39 0.40 0.41 0.43 0.46 0.48
0.28 0.27 0.26 0.25 0.23 0.25 0.30 0.34 0.37 0.37 0.40 0.43 0.43 0.41 0.43 0.47 0.54 0.54 0.56 0.61 0.67 0.76 0.87 0.91 0.76 0.62 0.57 0.55 0.54 0.51 0.39 0.36 0.37 0.40 0.37 0.36 0.35 0.35 0.35 0.35 0.35 0.35 0.33
0.28 0.25 0.24 0.24 0.22 0.22 0.25 0.28 0.30 0.35 0.36 0.39 0.37 0.36 0.38 0.40 0.44 0.45 0.48 0.53 0.60 0.64 0.72 0.77 0.66 0.55 0.47 0.41 0.47 0.48 0.42 0.46 0.31 0.27 0.27 0.25 0.26 0.25 0.23 0.23 0.23 0.23 0.21
0.25 0.24 0.22 0.22 0.22 0.19 0.19 0.21 0.22 0.26 0.32 0.32 0.28 0.30 0.33 0.32 0.33 0.38 0.42 0.48 0.56 0.63 0.66 0.66 0.58 0.47 0.42 0.39 0.49 0.57 0.53 0.46 0.38 0.22 0.22 0.20 0.19 0.17 0.18 0.21 0.18 0.18 0.18
0.26 0.25 0.23 0.22 0.21 0.18 0.16 0.16 0.18 0.19 0.25 0.27 0.26 0.25 0.25 0.25 0.28 0.31 0.34 0.40 0.51 0.63 0.68 0.69 0.62 0.53 0.47 0.52 0.60 0.58 0.54 0.42 0.36 0.27 0.30 0.27 0.30 0.45 0.64 0.69 0.47 0.26 0.20
0.26 0.25 0.25 0.24 0.21 0.19 0.19 0.18 0.17 0.20 0.23 0.25 0.27 0.25 0.22 0.20 0.20 0.22 0.25 0.29 0.41 0.56 0.71 0.79 0.73 0.67 0.59 0.63 0.70 0.68 0.69 0.64 0.56 0.36 0.38 0.36 0.44 0.81 1.19 1.39 0.97 0.45 0.31
0.27 0.24 0.21 0.23 0.24 0.21 0.18 0.18 0.17 0.19 0.23 0.29 0.32 0.31 0.24 0.20 0.27 0.29 0.25 0.22 0.28 0.38 0.59 0.81 0.88 0.79 0.72 0.76 0.87 0.86 0.82 0.80 0.72 0.51 0.55 0.58 0.62 0.93 1.02 1.14 1.09 0.70 0.54
0.30 0.29 0.25 0.24 0.25 0.21 0.18 0.19 0.20 0.24 0.26 0.28 0.29 0.30 0.35 0.35 0.29 0.27 0.25 0.29 0.38 0.48 0.56 0.64 0.79 0.78 0.69 0.70 0.82 0.86 0.80 0.74 0.69 0.62 0.66 0.77 0.73 0.86 0.86 1.13 1.32 1.16 0.97
0.32 0.30 0.26 0.26 0.28 0.26 0.22 0.24 0.27 0.32 0.30 0.27 0.24 0.23 0.28 0.32 0.27 0.25 0.31 0.41 0.49 0.55 0.47 0.58 0.67 0.76 0.78 0.73 0.68 0.72 0.85 0.91 0.89 0.71 0.64 0.75 0.81 0.85 0.97 1.28 1.36 1.36 1.27
0.35 0.31 0.28 0.28 0.29 0.29 0.21 0.21 0.24 0.30 0.32 0.28 0.28 0.29 0.27 0.24 0.25 0.26 0.34 0.47 0.58 0.59 0.64 0.82 0.98 1.05 1.00 0.90 0.75 0.77 0.95 1.03 1.04 0.96 0.71 0.73 0.83 0.95 1.22 1.41 1.37 1.26 1.25